Kuchera_Ratio
0.0 0.0 0.0 0.0 0.0 0.0 0.0 0.0 0.0 0.0 0.0 0.0 0.0 0.0 0.0 0.0 0.0 0.0 0.0 0.0 0.0 0.0 0.0 0.0 0.0 0.0 0.0 0.0 0.0 0.0 0.0 0.0 0.0 0.0 0.0 0.0 0.0 0.0 0.0 0.0 0.0 0.0 0.0 0.0 0.0 0.0 0.0
0.0 0.0 0.0 0.0 0.0 0.0 0.0 0.0 0.0 0.0 0.0 0.0 0.0 0.0 0.0 0.0 0.0 0.0 0.0 0.0 0.0 0.0 0.0 0.0 0.0 0.0 0.0 0.0 0.0 0.0 0.0 0.0 0.0 0.0 0.0 0.0 0.0 0.0 0.0 0.0 0.0 0.0 0.0 0.0 0.0 0.0 0.0
0.0 0.0 0.0 0.0 0.0 0.0 0.0 0.0 0.0 0.0 0.0 0.0 0.0 0.0 0.0 0.0 0.0 0.0 0.0 0.0 0.0 0.0 0.0 0.0 0.0 0.0 0.0 0.0 0.0 0.0 0.0 0.0 0.0 0.0 0.0 0.0 0.0 0.0 0.0 0.0 0.0 0.0 0.0 0.0 0.0 0.0 0.0
0.0 0.0 0.0 0.0 0.0 0.0 0.0 0.0 0.0 0.0 0.0 0.0 0.0 0.0 0.0 0.0 0.0 0.0 0.0 0.0 0.0 0.0 0.0 0.0 0.0 0.0 0.0 0.0 0.0 0.0 0.0 0.0 0.0 0.0 0.0 0.0 0.0 0.0 0.0 0.0 0.0 0.0 0.0 0.0 0.0 0.0 0.0
0.0 0.0 0.0 0.0 0.0 0.0 0.0 0.0 0.0 0.0 0.0 0.0 0.0 0.0 0.0 0.0 0.0 0.0 0.0 0.0 0.0 0.0 0.0 0.0 0.0 0.0 0.0 0.0 0.0 0.0 0.0 0.0 0.0 0.0 0.0 0.0 0.0 0.0 0.0 0.0 0.0 0.0 0.2 0.6 1.0 0.0 0.0
0.0 0.0 0.0 0.0 0.0 0.0 0.0 0.0 0.0 0.0 0.0 0.0 0.0 0.0 0.0 0.0 0.0 0.0 0.0 0.0 0.0 0.0 0.0 0.0 0.0 0.0 0.0 0.0 0.0 0.0 0.0 0.0 0.0 0.0 0.0 0.0 0.0 0.0 0.0 0.0 0.0 0.0 1.4 1.7 1.6 0.0 0.8
0.0 0.0 0.0 0.0 0.0 0.0 0.0 0.0 0.0 0.0 0.0 0.0 0.0 0.0 0.0 0.0 0.0 0.0 0.0 0.0 0.0 0.0 0.0 0.0 0.0 0.0 0.0 0.0 0.0 0.0 0.0 0.0 0.0 0.0 0.0 0.0 0.0 0.0 0.0 0.0 0.0 0.0 1.4 2.9 0.0 1.3 2.7
0.0 0.0 0.0 0.0 0.0 0.0 0.0 0.0 0.0 0.0 0.0 0.0 0.0 0.0 0.0 0.0 0.0 0.0 0.0 0.0 0.0 0.0 0.0 0.0 0.0 0.0 0.0 0.0 0.0 0.0 0.0 0.0 0.0 0.0 0.0 0.0 0.6 0.6 0.0 0.0 0.1 1.8 3.3 3.5 2.3 1.5 3.7
0.0 0.0 0.0 0.0 0.0 0.0 0.0 0.0 0.0 0.0 0.0 0.0 0.0 0.0 0.0 0.0 0.0 0.0 0.0 0.0 0.0 0.0 0.0 0.0 0.0 0.0 0.0 0.0 0.0 0.0 0.0 0.0 0.0 0.7 0.7 1.6 1.3 0.0 0.5 3.3 3.6 4.1 4.2 4.6 6.2 5.3 3.7
0.0 0.0 0.0 0.0 0.0 0.0 0.0 0.0 0.0 0.0 0.0 0.0 0.0 0.0 0.0 0.0 0.0 0.0 0.0 0.0 0.0 0.0 2.6 1.8 0.0 0.0 0.0 0.0 0.0 0.0 0.0 0.0 0.0 1.9 1.3 2.3 0.0 2.2 4.2 4.6 5.4 6.4 5.9 5.7 7.5 9.4 10.0
0.0 0.0 0.0 0.0 0.0 0.0 0.0 0.0 0.0 0.0 0.0 0.0 0.0 0.0 0.0 0.0 0.0 0.0 0.0 0.0 0.0 0.0 10.7 0.0 0.0 0.0 0.0 0.0 0.0 0.0 0.0 0.0 3.7 3.4 2.8 5.4 5.3 5.9 6.3 6.4 5.0 7.3 7.4 9.5 10.5 11.9 12.2
0.0 0.0 0.0 0.0 0.0 0.0 0.0 0.0 0.0 0.0 0.0 0.0 0.0 0.0 0.0 0.0 0.0 0.0 0.0 0.0 0.0 4.4 10.7 4.7 0.0 0.6 0.6 0.0 0.0 0.0 0.0 0.0 0.0 3.9 4.7 5.1 0.0 4.5 5.7 6.9 5.8 6.4 10.4 11.7 12.7 12.9 13.5
0.0 0.0 0.0 0.0 0.0 0.0 0.0 0.0 0.0 0.0 0.0 0.0 0.0 0.0 0.0 0.0 0.0 0.0 0.0 0.0 5.2 9.6 0.0 5.5 4.7 3.5 5.7 4.5 4.6 3.3 6.2 5.8 6.3 9.0 7.6 7.4 7.6 3.3 2.7 9.4 10.2 9.9 12.4 13.0 13.2 12.9 12.8
0.0 0.0 0.0 0.0 0.0 0.0 0.0 0.0 0.0 0.0 0.0 0.0 0.0 0.0 0.0 0.0 0.0 0.0 0.0 1.6 11.8 0.9 3.2 1.5 3.2 4.7 4.9 5.2 6.2 6.6 7.2 6.5 6.3 6.4 6.8 8.5 11.2 8.1 5.3 8.5 11.0 11.6 13.2 10.3 14.2 13.6 14.2
0.0 0.0 0.0 0.0 0.0 0.0 0.0 0.0 0.0 0.0 0.0 0.0 0.0 0.0 0.0 0.0 0.0 0.0 0.0 8.6 3.7 0.7 0.0 1.2 5.1 6.2 5.7 4.1 5.3 6.8 7.8 5.5 4.2 5.2 4.6 9.0 12.1 9.2 10.1 11.4 11.3 13.9 14.0 12.4 13.9 15.8 16.8
0.0 0.0 0.0 0.0 0.0 0.0 0.0 0.0 0.0 0.0 0.0 0.0 0.0 0.0 0.0 0.0 0.0 0.0 6.1 6.6 0.7 0.0 0.0 0.5 1.2 1.3 6.5 6.5 8.3 8.1 8.0 3.4 2.2 0.9 0.0 6.7 12.6 12.7 13.3 8.9 12.6 13.7 13.4 14.2 14.3 16.4 18.9
0.0 0.0 0.0 0.0 0.0 0.0 0.0 0.0 0.0 0.0 0.0 0.0 0.0 2.1 0.0 0.0 0.0 2.2 12.2 8.4 0.0 0.0 0.0 0.0 2.5 2.8 3.4 4.4 7.1 9.0 6.3 2.2 1.4 1.9 3.0 4.6 8.9 15.1 14.5 14.5 13.0 13.9 15.2 14.6 14.1 14.5 16.6
0.0 0.0 0.0 0.0 0.0 0.0 0.0 0.0 0.0 0.0 0.0 0.0 0.0 7.0 0.0 0.0 5.4 6.6 8.4 4.3 0.0 0.0 0.0 0.0 0.0 0.0 2.1 2.9 5.1 6.6 5.5 0.5 0.0 0.2 6.7 4.3 12.2 14.9 13.9 13.9 14.1 14.3 13.7 13.0 14.0 15.2 15.8
0.0 0.0 0.0 0.0 0.0 0.0 0.0 0.0 0.0 0.0 0.0 0.0 4.1 4.1 0.0 0.0 12.7 10.7 7.2 1.4 0.0 0.9 1.2 1.2 0.7 0.7 0.0 2.0 5.9 5.8 3.7 2.2 1.3 0.5 4.2 6.7 13.2 16.8 17.4 16.7 15.9 15.7 14.3 14.3 13.6 15.0 16.3
0.0 0.0 0.0 0.0 0.0 0.0 0.0 0.0 0.0 0.0 0.0 0.0 0.6 10.4 7.7 5.8 8.5 9.1 8.2 4.8 4.6 0.0 0.0 0.0 1.6 0.0 3.3 5.0 1.8 6.8 8.6 7.3 3.8 3.6 0.0 3.7 12.4 13.6 14.4 12.8 12.2 15.1 13.6 14.0 14.4 17.6 17.1
0.0 0.0 0.0 0.0 0.0 0.0 0.0 0.0 0.0 0.0 0.0 0.0 0.7 5.1 6.2 13.0 12.3 10.1 7.4 6.7 5.9 6.5 0.8 0.1 6.3 5.3 3.9 10.1 8.9 9.6 9.6 10.5 8.6 2.9 7.0 8.9 13.7 12.9 11.3 11.3 12.7 11.2 9.8 12.3 15.5 14.2 15.2
0.0 0.0 0.0 0.0 0.0 0.0 0.0 0.0 0.0 0.0 0.0 0.0 4.1 6.3 5.3 8.4 6.0 8.8 7.3 9.2 7.7 5.6 3.9 8.7 6.2 4.8 6.2 6.6 3.8 8.9 7.5 9.7 9.5 12.5 12.2 12.2 15.2 14.6 15.4 12.5 12.7 13.9 14.2 14.9 15.0 14.3 13.9
0.0 0.0 0.0 0.0 0.0 0.0 0.0 0.0 0.0 0.0 0.0 0.0 0.0 0.0 2.6 4.3 6.2 10.4 9.3 7.7 5.5 1.3 1.2 0.0 1.9 5.5 10.5 5.1 0.0 0.0 0.6 3.2 5.9 10.9 13.8 13.9 14.7 16.0 17.5 14.0 14.8 17.4 14.5 14.1 13.6 13.3 13.0
0.0 0.0 0.0 0.0 0.0 0.0 0.0 0.0 0.0 0.0 0.0 0.0 0.0 0.0 7.3 9.5 7.3 5.4 3.2 2.3 5.3 2.6 5.5 0.8 0.0 7.7 2.3 0.0 0.5 4.6 4.0 5.5 7.6 11.2 8.3 14.2 16.3 15.0 17.3 16.6 20.3 9.3 3.3 4.3 8.0 7.3 12.1
0.0 0.0 0.0 0.0 0.0 0.0 0.0 0.0 0.0 0.0 0.0 0.0 0.0 0.4 7.9 9.6 6.0 5.4 4.4 4.7 3.7 0.5 2.5 3.3 0.0 0.0 0.0 5.5 9.5 12.5 12.7 12.3 11.1 8.3 12.2 7.2 13.4 16.0 18.0 18.7 13.1 10.4 8.7 9.9 10.8 8.8 8.2
0.0 0.0 0.0 0.0 0.0 0.0 0.0 0.0 0.0 0.0 0.0 0.0 0.0 0.0 5.9 9.0 8.4 1.4 4.3 3.3 6.9 7.2 5.9 2.9 0.0 0.0 2.2 7.7 9.9 14.2 15.3 13.8 15.9 14.1 9.1 10.3 8.9 13.6 16.3 18.7 19.3 8.9 0.3 1.6 4.0 14.1 3.1
0.0 0.0 0.0 0.0 0.0 0.0 0.0 0.0 0.0 0.0 0.0 0.0 0.0 0.0 0.4 9.2 2.5 0.0 5.0 5.3 2.1 3.7 7.2 5.8 2.2 5.4 1.5 9.2 12.2 13.2 13.5 12.1 15.9 16.0 15.4 14.0 14.7 15.2 15.1 16.0 14.1 2.7 5.8 7.9 17.0 11.1 0.0
0.0 0.0 0.0 0.0 0.0 0.0 0.0 0.0 0.0 0.0 0.0 0.0 0.0 0.0 0.0 7.5 5.0 0.0 0.0 1.3 3.7 5.1 7.5 6.0 5.9 5.8 8.4 11.4 11.7 10.9 12.6 12.4 12.4 9.2 12.1 14.6 15.6 15.9 15.0 16.5 17.9 5.0 12.5 13.6 1.8 0.7 0.0
0.0 0.0 0.0 0.0 0.0 0.0 0.0 0.0 0.0 0.0 0.0 0.0 0.5 0.0 0.0 2.4 4.6 0.0 0.0 0.0 0.0 0.0 2.5 4.8 2.6 6.6 3.2 8.9 8.4 10.0 12.4 14.1 12.4 13.6 4.1 13.3 10.4 12.0 13.3 13.0 5.8 3.7 2.6 0.0 0.0 0.0 2.9